Location: Caltech
(34.1382°N, 118.1253°W)
Time: 11:25:21
(UTC-08:00)

BREEZE M DEB (TANK) - Visible Passes

Search period start: 13 February 2016 00:00
Search period end: 23 February 2016 00:00
Orbit: 322 x 13746 km, 49.6° (Epoch: 11 February)

Date Brightness Start Highest point End Pass type
(mag) Time Alt. Az. Time Alt. Az. Time Alt. Az.
13 Feb 6.5 21:48:10 10° WNW 22:19:39 11° SSE 22:21:37 10° SSE visible
14 Feb 4.3 19:11:36 10° NW 19:15:27 51° NE 19:18:38 34° E visible
15 Feb 8.9 00:04:32 12° SSW 00:04:32 12° SSW 00:09:29 10° SSW visible
15 Feb 5.6 21:00:27 10° WNW 21:31:46 - SSE 21:05:18 49° WSW visible
16 Feb 4.5 18:24:29 10° NNW 18:27:45 31° NE 18:34:20 13° E visible
16 Feb 7.4 23:16:15 14° S 23:16:15 14° S 23:22:48 10° S visible
17 Feb 4.9 20:12:49 10° WNW 20:17:45 67° SW 20:21:20 45° SSE visible
18 Feb 7.0 22:03:22 10° W 22:26:53 15° S 22:33:48 10° S visible
19 Feb 4.3 19:25:17 10° NW 19:29:30 89° NE 19:38:36 21° SE visible
20 Feb 6.6 21:14:54 10° W 21:21:34 33° SW 21:43:25 10° SSE visible
21 Feb 4.0 18:37:47 10° NW 18:41:25 59° NE 18:53:12 10° ESE visible
21 Feb 8.0 23:12:28 10° SW 23:17:40 11° SW 23:25:04 10° SSW visible
22 Feb 5.9 20:26:44 10° WNW 20:32:19 41° SW 20:52:14 10° SSE visible
